Flag for United Kingdom Weather past 2 weeks in Northampton, England, United Kingdom

Now
64 °F

Passing clouds.


Feels Like: 64 °F
Forecast: 46 / 68 °F
Wind: 7 mph from Northwest

Location: Cranfield

Current Time: Jul 30, 2015 at 9:25:57 PM

Latest Report: Jul 30, 2015 at 5:50 PM


Visibility: N/A

Pressure: 30.09 "Hg

Humidity: 43%

Dew point: 41 °F

Location of NorthamptonLocation

Historic Weather in Northampton — Graph

°F

Northampton temperature yesterday

Maximum temperature yesterday: 64 °F (at 2:50 PM)
Minimum temperature yesterday: 55 °F (at 8:20 AM)
Average temperature yesterday: 61 °F

Past Weeks' High & Low Weather Summary

 TemperatureHumidityPressure
High75 °F (Jul 16, 3:50 PM)100% (Jul 24, 2:20 PM)30.09 "Hg (Jul 24, 2:20 PM)
Low52 °F (Jul 30, 7:50 AM)33% (Jul 19, 4:50 PM)29.39 "Hg (Jul 26, 7:50 PM)
Average64 °F67%29.84 "Hg
* Reported Jul 15 5:20 PM — Jul 30 5:50 PM, Northampton, Weather by CustomWeather, © 2015

Note: Actual official high and low records may vary slightly from our data, if they occured in-between our weather recording intervals... More about our weather records

Advertising

Northampton weather history for previous 24 hours

 ConditionsComfort  
Time TempWeatherWind HumidityBarometerVisibility
5:50 PM
Thu, Jul 30
64 °FPassing clouds.7 mph43%30.09 "HgN/A
4:50 PM66 °FPassing clouds.8 mph40%30.09 "HgN/A
4:20 PM64 °FPassing clouds.13 mph43%30.07 "HgN/A
3:50 PM64 °FPassing clouds.10 mph46%30.07 "HgN/A
3:20 PM63 °FPassing clouds.9 mph49%30.07 "HgN/A
2:50 PM66 °FPassing clouds.10 mph46%30.07 "HgN/A
2:20 PM63 °FPassing clouds.12 mph52%30.07 "HgN/A
1:50 PM63 °FPassing clouds.10 mph56%30.07 "HgN/A
1:20 PM63 °FPassing clouds.13 mph56%30.07 "HgN/A
12:50 PM61 °FPassing clouds.12 mph59%30.07 "HgN/A
12:20 PM61 °FPassing clouds.10 mph63%30.07 "HgN/A
11:50 AM59 °FScattered clouds.12 mph63%30.07 "HgN/A
11:20 AM59 °FScattered clouds.9 mph63%30.07 "HgN/A
10:50 AM61 °FScattered clouds.12 mph63%30.04 "HgN/A
10:20 AM57 °FPassing clouds.10 mph72%30.04 "HgN/A
9:50 AM57 °FScattered clouds.13 mph72%30.04 "HgN/A
9:20 AM57 °FScattered clouds.12 mph77%30.04 "HgN/A
8:50 AM55 °FScattered clouds.12 mph77%30.04 "HgN/A
8:20 AM52 °FPassing clouds.10 mph88%30.04 "HgN/A
7:50 AM52 °FPassing clouds.10 mph88%30.01 "HgN/A
Weather by CustomWeather, © 2015

See weather overviewHow to use our weather pages